Location: Fort Collins
(40.5850°N, 105.0840°W)
Time: 20:13:23
(UTC-06:00)

Daily predictions for brighter satellites

Satellite Brightness Start Highest point End
(mag) Time Altitude Azimuth Time Altitude Azimuth Time Altitude Azimuth
BREEZE-M DEB (TANK) 3.6 19:55:04 10° SW 19:58:51 68° SE 20:12:29 10° ENE
Cosmos 2219 Rocket 2.7 20:04:12 10° S 20:09:19 36° ESE 20:14:26 10° NE
SJ 16-02 4.5 20:06:16 10° WSW 20:09:22 19° WNW 20:12:31 10° NNW
Cosmos 2237 Rocket 3.5 20:06:38 10° SE 20:10:10 17° E 20:13:43 10° ENE
Cosmos 1805 Rocket 3.6 20:07:26 10° N 20:11:45 58° E 20:16:00 10° SSE
Cosmos 2154 Rocket 4.2 20:09:36 10° SSE 20:15:37 50° E 20:21:37 10° NNE
YAOGAN 6 3.4 20:13:54 10° SE 20:17:10 33° ENE 20:20:28 10° N
Cosmos 2278 Rocket 3.6 20:14:30 10° N 20:18:56 23° NE 20:23:20 10° ESE
Cosmos 2184 Rocket 4.1 20:12:58 10° S 20:19:08 85° W 20:25:20 10° N
Cosmos 1437 3.2 20:16:32 10° SSW 20:19:41 66° W 20:22:52 10° N
Resurs 01 Rocket 2.3 20:17:28 10° SE 20:21:31 36° ENE 20:25:35 10° N
Cosmos 2251 Rocket 3.6 20:19:02 10° NNW 20:24:23 63° ENE 20:29:41 10° SSE
Cosmos 44 Rocket 3.9 20:21:23 10° SW 20:26:04 63° NW 20:30:57 10° NNE
Envisat 3.1 20:23:14 10° SSE 20:28:19 88° WSW 20:33:26 10° NNW
Meteor 2-15 4.4 20:22:56 10° N 20:29:04 71° E 20:35:09 10° SSE
ATLAS CENTAUR R/B 1.8 20:27:39 10° S 20:30:54 31° ESE 20:34:16 10° NE
Cosmos 1340 2.6 20:27:49 10° S 20:31:36 81° E 20:35:25 10° NNE
Cosmos 2341 Rocket 4.2 20:31:23 10° SSE 20:37:28 51° E 20:43:34 10° NNE
Meteor 2-21 4.4 20:32:09 10° S 20:38:16 79° E 20:44:27 10° N
In-Cosmos 22 Rocket 4.4 20:34:28 10° NNW 20:39:56 71° W 20:45:14 10° S
Timation 1 Rocket 4.3 20:37:20 10° NNW 20:43:20 81° ENE 20:49:18 10° SSE
Cosmos 1825 3.7 20:42:21 10° NNE 20:45:13 20° ENE 20:46:31 17° ESE
NOSS 0 Rocket 4.1 20:44:46 10° S 20:50:41 51° ESE 20:56:39 10° NE
USA 186 1.5 20:49:32 11° S 20:51:37 54° W 20:53:52 10° NNW
SJ-6B 4.3 20:48:08 10° SSW 20:51:55 39° W 20:55:41 10° NNW
SL-24 R/B - RUBIN 2 3.8 20:47:56 10° NW 20:52:15 66° WSW 20:56:10 13° SSE
Cosmos 1666 Rocket 3.7 20:47:47 10° N 20:52:17 81° W 20:56:44 10° S
Thor Agena Rocket 3.8 20:48:57 10° N 20:54:11 74° WNW 20:59:26 10° SSW
BREEZE-M DEB (TANK) 2.8 20:49:56 10° NW 20:54:22 50° NNE 20:55:37 24° E
Cosmos 1939 Rocket 2.8 20:51:10 10° S 20:55:01 82° WSW 20:58:57 10° NNW
SJ-11-01 4.2 20:51:58 10° SSE 20:56:37 73° ENE 21:01:17 10° N
Resurs 1-3 3.6 20:52:47 10° SSE 20:57:11 89° WSW 21:01:36 10° NNW
Cosmos 1933 Rocket 4.1 20:54:10 10° N 20:58:18 39° ENE 21:00:35 22° SE
SL-16 R/B 3.5 20:59:33 18° E 20:59:34 18° E 21:03:15 10° ENE
BREEZE-M DEB (TANK) 3.7 20:59:58 10° NW 21:03:15 26° N 21:04:23 18° ENE
Cosmos 1869 4.2 21:02:49 25° ESE 21:03:51 29° E 21:07:22 10° NNE
Cosmos 220 Rocket 3.9 20:59:39 10° NNW 21:04:00 69° ENE 21:06:39 22° SSE
Meteor 2-3 Rocket 3.7 20:58:28 10° N 21:04:06 82° E 21:09:43 10° S
Sich 1 3.8 21:00:30 10° NNW 21:04:39 51° W 21:08:46 10° S
Cosmos 1151 Rocket 3.1 21:01:29 10° S 21:05:37 54° E 21:09:48 10° NNE
SL-8 Rocket 4.1 21:00:10 10° SSE 21:06:18 56° E 21:12:25 10° NNE
GEOS 3 Rocket 4.5 21:03:32 10° ENE 21:07:59 26° ESE 21:12:19 10° S
ARGOS 3.8 21:07:10 23° ESE 21:09:46 37° ENE 21:14:38 10° N
Spot 2 Rocket 3.5 21:06:34 12° SSE 21:11:17 90° W 21:16:24 10° NNW
Lacrosse 5 4.4 21:14:19 10° NNW 21:16:25 12° N 21:18:31 10° NNE
ATLAS 2AS CENTAUR R/B 2.9 21:09:51 10° NNW 21:17:48 86° NE 21:22:42 23° SE
SPOT 5 4.4 21:19:19 17° ENE 21:19:45 17° ENE 21:22:43 10° NNE
CZ-4B DEB 4.4 21:20:14 42° SE 21:21:16 69° ENE 21:24:45 10° N
Cosmos 1633 Rocket 4.2 21:21:03 10° NNW 21:25:09 41° W 21:29:13 10° SSW
Cosmos 1980 3.6 21:20:16 10° SSW 21:25:57 84° ESE 21:31:40 10° NNE
OAO 2 Rocket 4.3 21:22:12 10° W 21:26:48 32° SSW 21:28:16 27° SSE
Meteor 2-10 Rocket 3.9 21:27:11 27° SSE 21:30:03 50° E 21:35:38 10° NNE
Cosmos 1455 3.8 21:29:10 10° SW 21:32:41 35° WNW 21:36:16 10° N
ATLAS 2A CENTAUR R/B 4.4 21:18:27 10° SW 21:32:58 29° S 21:36:26 25° SSE
Cosmos 2333 Rocket 3.0 21:29:15 10° SW 21:34:45 52° WNW 21:40:17 10° NNE
Cosmos 1515 Rocket 3.9 21:30:44 10° SSW 21:35:09 66° W 21:39:37 10° N
Cosmos 1408 2.5 21:31:32 10° N 21:35:12 81° W 21:36:08 48° S
Cosmos 2228 Rocket 3.4 21:30:57 10° SSW 21:35:18 65° W 21:39:41 10° N
Helios 1A 4.1 21:35:50 27° ENE 21:35:50 27° ENE 21:39:19 10° N
Cosmos 864 Rocket 4.4 21:33:34 18° S 21:38:14 71° E 21:44:20 10° NNE
USA 81 4.3 21:37:16 10° N 21:42:24 49° E 21:43:21 43° ESE
SL-8 R/B 3.7 21:42:58 10° WSW 21:47:46 82° NNW 21:50:54 22° ENE
NOSS 3-4 (A) 4.2 21:41:15 10° NNW 21:48:04 51° NE 21:51:01 34° ESE
NOSS 3-4 (C) 4.2 21:41:21 10° NNW 21:48:10 50° NE 21:51:06 34° ESE
H-2A R/B 2.0 21:48:27 50° SE 21:49:34 64° ENE 21:54:30 10° N
Cosmos 1862 4.2 21:46:39 10° N 21:49:46 36° NE 21:49:46 36° NE
Cosmos 407 Rocket 3.6 21:45:39 10° N 21:50:39 52° ENE 21:51:21 48° E
ERS-1 Rocket 3.0 21:50:13 51° ESE 21:51:07 60° ENE 21:56:04 10° N
Cosmos 2219 Rocket 4.0 21:48:13 10° WSW 21:53:15 32° WNW 21:58:18 10° N
Cosmos 2237 Rocket 2.6 21:48:04 10° SW 21:53:37 63° WNW 21:59:14 10° NNE
Genesis I 4.1 21:50:58 10° NW 21:54:49 42° WSW 21:55:26 39° SW
MetOp-A 4.1 21:53:47 43° S 21:55:39 87° W 22:01:02 10° NNW
Cosmos 1371 Rocket 4.1 21:52:26 10° SSW 21:57:44 80° WNW 22:03:07 10° NNE
Resurs 01 Rocket 4.0 21:54:47 10° SW 21:58:05 20° W 22:01:24 10° NW
USA 267 3.3 21:53:34 10° NE 21:59:57 54° SE 22:06:18 10° SSW
Cosmos 405 Rocket 4.1 22:03:13 29° NNE 22:03:13 29° NNE 22:05:19 10° NNE
SL-08 RB Rocket 3.5 22:02:53 77° SSE 22:03:12 89° ENE 22:07:42 10° NNW
Cosmos 2278 Rocket 2.6 21:57:50 10° NNW 22:03:23 56° WSW 22:05:28 36° SSW
Cosmos 676 Rocket 4.4 22:04:33 10° N 22:09:38 47° ENE 22:09:38 47° ENE
ATLAS CENTAUR R/B 3.8 22:07:03 10° W 22:09:55 21° NW 22:12:53 10° N
ATLAS 5 CENTAUR R/B 4.4 22:06:37 10° N 22:10:04 16° NE 22:12:39 12° ENE
Cosmos 1727 Rocket 4.0 22:08:08 10° N 22:14:19 77° W 22:16:20 45° S
Cosmos 1821 Rocket 4.1 22:17:40 52° E 22:17:46 53° E 22:23:52 10° NNE
Cosmos 2056 Rocket 3.9 22:15:53 22° SSW 22:19:22 66° WNW 22:24:45 10° NNE
Cosmos 1825 4.1 22:17:38 10° NW 22:20:42 24° W 22:21:24 22° WSW
Cosmos 2098 Rocket 4.3 22:20:03 25° SW 22:22:13 39° W 22:25:57 10° N
Landsat 7 4.4 22:25:42 49° NE 22:25:42 49° NE 22:29:33 10° N
USA 234 4.4 22:30:26 24° ENE 22:33:19 34° NNE 22:39:05 10° NW
Cosmos 1190 Rocket 4.5 22:35:55 10° NNW 22:41:02 52° WSW 22:41:05 52° WSW
Terra 2.8 22:43:59 41° NNE 22:43:59 41° NNE 22:47:17 10° N
SL-16 R/B 2.6 22:41:17 41° SW 22:43:06 61° WNW 22:48:43 10° NNE
GEOS 3 Rocket 4.3 22:40:58 10° NNE 22:46:11 54° NW 22:51:18 10° SW
Cosmos 1140 Rocket 3.8 22:42:29 10° NNW 22:46:47 62° NNW 22:46:47 62° NNW
Cosmos 1535 Rocket 4.5 22:49:13 74° ENE 22:49:13 74° ENE 22:55:14 10° N
CZ-2C R/B 4.2 22:55:28 31° NNE 22:55:28 31° NNE 22:58:16 10° N
Cosmos 1954 Rocket 4.4 22:49:15 10° NNW 22:53:30 59° NW 22:53:30 59° NW
CZ-4C R/B 3.8 22:58:25 23° NE 22:58:25 23° NE 23:00:40 10° NE
Cosmos 1943 Rocket 3.8 22:51:04 10° N 22:54:52 23° NE 22:54:52 23° NE
SPOT 5 3.9 22:58:33 40° WNW 22:58:33 40° WNW 23:01:53 10° NNW
Helios 1B rocket 4.1 22:53:43 10° N 22:56:08 31° NNW 22:56:08 31° NNW
Lacrosse 5 3.6 22:56:56 10° NNW 23:01:05 24° NNE 23:01:09 24° NNE
Cosmos 1605 Rocket 4.5 23:09:19 51° NE 23:09:19 51° NE 23:14:15 10° NNE
Cosmos 2344 3.6 23:08:24 31° SW 23:12:25 76° NW 23:20:49 10° NNE
Cosmos 2369 Rocket 3.2 23:17:56 10° NNW 23:22:03 42° NNE 23:22:03 42° NNE
H-2A R/B 4.4 23:29:05 14° W 23:29:22 14° W 23:32:01 10° WNW
BREEZE-M DEB (TANK) 4.1 23:09:11 10° WNW 23:31:42 86° SW 23:31:53 84° S
CZ-2C R/B 3.9 23:36:39 10° NNE 23:39:41 35° NNE 23:39:41 35° NNE
USA 267 4.0 23:36:40 10° NE 23:42:53 48° NNW 23:49:05 10° WSW
